Location: Bun Machan
(52.1403°N, 7.3744°W)
Time: 17:23:40
(UTC+00:00)

Cosmos 1818 - Pass Details

Date: 14 July 2020
Orbit: 777 x 796 km, 65.0° (Epoch: 13 August)

Event Time Altitude Azimuth Distance (km) Brightness Sun altitude
Rises 02:55:48 0° 317° (NW) 3,309 7.0 -10.1°
Reaches altitude 10° 02:58:14 10° 318° (NW) 2,377 6.2 -9.9°
Maximum altitude 03:03:44 86° 47° (NE) 806 3.7 -9.5°
Drops below altitude 10° 03:09:11 10° 137° (SE) 2,362 5.9 -9.0°
Sets 03:11:36 0° 138° (SE) 3,287 6.7 -8.8°
